MST,Max TemperatureF,Mean TemperatureF,Min TemperatureF,Max Dew PointF,MeanDew PointF,Min DewpointF,Max Humidity, Mean Humidity, Min Humidity, Max Sea Level PressureIn, Mean Sea Level PressureIn, Min Sea Level PressureIn, Max VisibilityMiles, Mean VisibilityMiles, Min VisibilityMiles, Max Wind SpeedMPH, Mean Wind SpeedMPH, Max Gust SpeedMPH,PrecipitationIn, CloudCover, Events, WindDirDegrees
2013-8-1,89,79,68,55,53,51,57,41,29,30.18,29.90,29.83,10,10,10,22,8,28,0.00,2,,186
2013-8-2,88,77,65,57,49,42,73,40,21,29.91,29.87,29.84,10,10,10,17,6,31,0.00,0,,187
2013-8-3,89,77,64,56,50,44,73,40,21,29.95,29.91,29.87,10,10,10,16,7,22,0.00,1,,209
2013-8-4,89,78,67,51,44,34,53,33,16,29.96,29.92,29.88,10,10,10,16,6,38,0.00,1,,199
2013-8-5,88,75,61,45,39,35,43,28,16,29.96,29.91,29.87,10,10,10,20,7,29,T,1,Rain,190
2013-8-6,75,71,67,57,52,47,68,53,38,29.99,29.94,29.86,10,10,10,14,5,17,0.01,7,Rain,179
2013-8-7,86,73,60,55,47,39,73,43,23,30.01,29.94,29.87,10,10,10,20,6,26,0.00,2,,242
2013-8-8,88,73,57,44,32,28,52,25,12,29.92,29.87,29.83,10,10,10,17,6,21,0.00,0,,190
2013-8-9,89,73,57,36,32,28,40,22,12,29.90,29.86,29.84,10,10,10,23,8,44,0.00,1,,192
2013-8-10,87,74,61,37,31,26,36,22,11,29.97,29.92,29.87,10,10,10,17,7,24,0.00,1,,190
2013-8-11,89,73,56,43,36,30,40,27,17,29.97,29.91,29.85,10,10,10,17,8,23,0.00,1,,184
2013-8-12,91,76,60,50,39,31,60,29,14,29.93,29.89,29.84,10,10,10,17,7,29,0.00,1,,199
2013-8-13,91,75,59,37,33,28,36,22,12,29.96,29.92,29.88,10,10,10,21,8,36,0.00,0,,188
2013-8-14,92,76,60,46,35,26,41,23,12,29.96,29.90,29.84,10,10,10,18,4,23,0.00,2,,207
2013-8-15,90,78,65,61,51,43,81,44,21,30.21,29.98,29.88,10,10,8,15,5,21,0.08,4,Rain-Thunderstorm,204
2013-8-16,92,77,62,55,50,39,65,43,24,30.22,29.96,29.92,10,10,10,23,5,31,T,2,Rain,208
2013-8-17,91,78,64,59,54,48,84,52,24,30.20,29.97,29.88,10,10,8,30,7,35,0.12,3,Rain-Thunderstorm,201
2013-8-18,91,76,61,58,53,47,84,52,24,30.17,29.97,29.89,10,10,10,23,5,33,T,2,Rain-Thunderstorm,306
2013-8-19,91,78,64,61,54,45,73,53,23,30.18,29.95,29.88,10,10,9,30,7,36,0.05,2,Thunderstorm,264
2013-8-20,93,76,58,56,49,40,78,41,16,30.13,29.91,29.81,10,10,10,15,5,22,0.00,2,Thunderstorm,210
2013-8-21,80,74,67,58,54,48,66,50,30,30.19,29.96,29.85,10,10,8,18,5,23,T,5,Thunderstorm,209
2013-8-22,87,76,64,61,55,48,84,56,27,30.17,29.95,29.83,10,10,8,24,5,30,0.03,5,Rain-Thunderstorm,304
2013-8-23,83,72,61,58,52,43,90,56,24,29.96,29.88,29.80,10,10,10,13,4,16,0.01,3,,213
2013-8-24,77,70,63,61,56,50,93,66,43,30.15,29.93,29.85,10,10,5,15,5,17,0.18,4,Rain-Thunderstorm,182
2013-8-25,68,65,62,63,60,56,93,86,68,30.22,30.03,29.94,10,9,4,14,3,18,0.55,7,Rain,174
2013-8-26,81,72,62,64,62,59,100,80,51,30.21,30.04,29.90,10,9,0,29,4,56,1.00,6,Rain-Thunderstorm,187
2013-8-27,86,75,63,64,60,50,93,73,31,30.18,29.96,29.84,10,10,6,23,4,28,0.14,4,Rain-Thunderstorm,290
2013-8-28,88,73,58,62,57,51,93,63,31,29.95,29.92,29.88,10,10,8,20,4,29,T,2,,193
2013-8-29,82,72,62,65,61,57,84,71,49,30.29,30.03,29.95,10,10,8,17,4,21,T,4,Rain-Thunderstorm,217
2013-8-30,79,71,63,66,63,60,100,87,60,30.31,30.14,29.98,10,10,4,22,5,28,0.16,6,Rain-Thunderstorm,228
2013-8-31,77,71,65,65,63,56,100,84,50,30.23,30.05,29.92,10,8,1,17,2,21,0.06,4,Rain-Thunderstorm,254